Weather History for Sedalia, MO

Change the Weather History Date:

Friday, November 2, 2012

  Actual Average Record
Temperature  
Mean Temperature 51 °F 53 °F  
Max Temperature 61 °F 62 °F 81 °F (1938)
Min Temperature 41 °F 43 °F 12 °F (1991)
Degree Days  
Heating Degree Days 14 13  
Month to date heating degree days 25 25  
Since 1 July heating degree days 384 316  
Cooling Degree Days 0 0  
Month to date cooling degree days 0 0  
Year to date cooling degree days 2107 1487  
Growing Degree Days 1 (Base 50)    
Moisture  
Dew Point 36 °F    
Average Humidity 59    
Maximum Humidity 79    
Minimum Humidity 39    
Precipitation  
Precipitation 0.00 in 0.11 in 2.51 in (1983)
Month to date precipitation 0.00 0.22  
Year to date precipitation 27.92 35.91  
Sea Level Pressure  
Sea Level Pressure 29.97 in    
Wind  
Wind Speed 9 mph (East)    
Max Wind Speed 17 mph    
Max Gust Speed 21 mph    
Visibility 10 miles    
Events      
T = Trace of Precipitation, MM = Missing Value Source: NWS Daily Summary

Daily Weather History Graph

Daily Weather History Graph

Search for Another Location

Airport:

Trip Planner

Search our weather history database for the weather conditions in past years. The results will help you decide how hot, cold, wet, or windy it might be!

Date:

Astronomy

Nov. 02, 2012 Rise Set
Actual Time 7:41 AM CDT 6:10 PM CDT
Civil Twilight 7:13 AM CDT 6:38 PM CDT
Nautical Twilight 6:42 AM CDT 7:09 PM CDT
Astronomical Twilight 6:11 AM CDT 7:40 PM CDT
Moon 8:59 PM CDT (11/2) 11:00 AM CDT (11/2)
Length of Visible Light 11h 24m
Length of Day
10h 29m
Waning Gibbous, 87% of the Moon is Illuminated
Nov 2
Waning Gibbous
Nov 6
Last Quarter
Nov 13
New
Nov 20
First Quarter
Nov 28
Full

Hourly Weather History & Observations

Time (CDT) Temp. Windchill Dew Point Humidity Pressure Visibility Wind Dir Wind Speed Gust Speed Precip Events Conditions
12:53 AM 50.0 °F - 41.0 °F 71% 29.96 in 10.0 mi North 5.8 mph - N/A   Clear
1:53 AM 48.0 °F - 41.0 °F 77% 29.98 in 10.0 mi North 3.5 mph - N/A   Clear
2:53 AM 46.9 °F - 39.9 °F 77% 29.99 in 10.0 mi ENE 3.5 mph - N/A   Clear
3:53 AM 45.0 °F 41.8 °F 37.9 °F 76% 29.99 in 10.0 mi ENE 5.8 mph - N/A   Clear
4:53 AM 44.1 °F 40.8 °F 37.0 °F 76% 29.99 in 10.0 mi ENE 5.8 mph - N/A   Clear
5:53 AM 42.1 °F 37.7 °F 36.0 °F 79% 30.01 in 10.0 mi ENE 6.9 mph - N/A   Clear
6:53 AM 43.0 °F 40.3 °F 35.1 °F 74% 30.02 in 10.0 mi East 4.6 mph - N/A   Clear
7:53 AM 41.0 °F 38.0 °F 35.1 °F 79% 30.03 in 10.0 mi East 4.6 mph - N/A   Clear
8:53 AM 43.0 °F 38.8 °F 36.0 °F 76% 30.04 in 10.0 mi East 6.9 mph - N/A   Clear
9:53 AM 45.0 °F 40.6 °F 36.0 °F 71% 30.03 in 10.0 mi East 8.1 mph - N/A   Clear
10:53 AM 50.0 °F - 36.0 °F 59% 30.02 in 10.0 mi East 11.5 mph - N/A   Clear
11:53 AM 54.0 °F - 36.0 °F 51% 30.02 in 10.0 mi ESE 12.7 mph - N/A   Clear
12:53 PM 57.0 °F - 36.0 °F 45% 29.99 in 10.0 mi East 12.7 mph - N/A   Clear
1:53 PM 59.0 °F - 35.1 °F 41% 29.96 in 10.0 mi SE 12.7 mph - N/A   Clear
2:53 PM 60.1 °F - 37.0 °F 42% 29.94 in 10.0 mi East 12.7 mph - N/A   Clear
3:53 PM 61.0 °F - 36.0 °F 39% 29.93 in 10.0 mi East 16.1 mph 20.7 mph N/A   Clear
4:53 PM 59.0 °F - 36.0 °F 42% 29.92 in 10.0 mi East 9.2 mph - N/A   Clear
5:53 PM 57.0 °F - 35.1 °F 44% 29.92 in 10.0 mi East 9.2 mph - N/A   Clear
6:53 PM 54.0 °F - 35.1 °F 49% 29.93 in 10.0 mi East 8.1 mph - N/A   Clear
7:53 PM 52.0 °F - 34.0 °F 50% 29.92 in 10.0 mi East 11.5 mph - N/A   Clear
8:53 PM 51.1 °F - 34.0 °F 52% 29.93 in 10.0 mi East 8.1 mph - N/A   Clear
9:53 PM 50.0 °F - 35.1 °F 57% 29.92 in 10.0 mi East 8.1 mph - N/A   Clear
10:53 PM 48.9 °F - 35.1 °F 59% 29.92 in 10.0 mi East 6.9 mph - N/A   Clear
11:53 PM 48.0 °F - 36.0 °F 63% 29.91 in 10.0 mi ESE 9.2 mph - N/A   Clear